| time (UTC) | temp C | wind direction | speed KPH | gust KPH | rain 1hr cm | rain 24hr cm | rain mn cm | humidity % | barometer mb |
| 20260505193814 | 28 | 297 | 1.6 | 11.3 | 0.00 | 0.00 | 0.00 | 27 | 1030.7 |
| 20260505193715 | 28 | 312 | 0.0 | 3.2 | 0.00 | 0.00 | 0.00 | 28 | 1030.6 |
| 20260505193616 | 28 | 331 | 1.6 | 6.4 | 0.00 | 0.00 | 0.00 | 27 | 1030.7 |
| 20260505192615 | 27 | 322 | 1.6 | 3.2 | 0.00 | 0.00 | 0.00 | 28 | 1030.6 |
| 20260505190616 | 28 | 234 | 0.0 | 3.2 | 0.00 | 0.00 | 0.00 | 29 | 1031.2 |
| 20260505185715 | 28 | 170 | 0.0 | 6.4 | 0.00 | 0.00 | 0.00 | 30 | 1031.2 |
| 20260505184813 | 28 | 35 | 0.0 | 1.6 | 0.00 | 0.00 | 0.00 | 29 | 1031.4 |
| 20260505183814 | 28 | 360 | 0.0 | 1.6 | 0.00 | 0.00 | 0.00 | 30 | 1031.4 |
| 20260505181814 | 29 | 300 | 1.6 | 4.8 | 0.00 | 0.00 | 0.00 | 33 | 1031.7 |
| 20260505180813 | 28 | 90 | 0.0 | 0.0 | 0.00 | 0.00 | 0.00 | 33 | 1031.8 |
| 20260505175815 | 28 | 228 | 3.2 | 11.3 | 0.00 | 0.00 | 0.00 | 33 | 1032.1 |
| 20260505174815 | 28 | 339 | 0.0 | 3.2 | 0.00 | 0.00 | 0.00 | 35 | 1032.2 |
| 20260505174714 | 28 | 33 | 0.0 | 1.6 | 0.00 | 0.00 | 0.00 | 34 | 1032.2 |
| 20260505173715 | 28 | 345 | 0.0 | 6.4 | 0.00 | 0.00 | 0.00 | 33 | 1032.1 |
| 20260505170814 | 28 | 40 | 0.0 | 3.2 | 0.00 | 0.00 | 0.00 | 36 | 1032.3 |
| 20260505165814 | 27 | 113 | 0.0 | 0.0 | 0.00 | 0.00 | 0.00 | 35 | 1032.3 |
| 20260505164814 | 27 | 254 | 0.0 | 3.2 | 0.00 | 0.00 | 0.00 | 35 | 1032.5 |
| 20260505163814 | 27 | 104 | 0.0 | 3.2 | 0.00 | 0.00 | 0.00 | 35 | 1032.6 |
| 20260505162815 | 27 | 319 | 0.0 | 1.6 | 0.00 | 0.00 | 0.00 | 36 | 1032.6 |
| 20260505161013 | 26 | 268 | 1.6 | 6.4 | 0.00 | 0.00 | 0.00 | 38 | 1032.7 |
| 20260505153031 | 26 | 274 | 1.6 | 4.8 | 0.00 | 0.00 | 0.00 | 35 | 1033.0 |
| 20260505152114 | 26 | 244 | 3.2 | 6.4 | 0.00 | 0.00 | 0.00 | 36 | 1033.1 |
| 20260505151114 | 26 | 188 | 0.0 | 3.2 | 0.00 | 0.00 | 0.00 | 36 | 1033.0 |
| 20260505151015 | 26 | 235 | 0.0 | 3.2 | 0.00 | 0.00 | 0.00 | 36 | 1033.0 |
| 20260505140130 | 24 | 180 | 0.0 | 1.6 | 0.00 | 0.00 | 0.00 | 42 | 1033.5 |
| 20260505130215 | 18 | 45 | 0.0 | 0.0 | 0.00 | 0.00 | 0.00 | 56 | 1034.0 |
| 20260505124314 | 17 | 270 | 0.0 | 0.0 | 0.00 | 0.00 | 0.00 | 61 | 1033.9 |
| 20260505123413 | 17 | 45 | 0.0 | 4.8 | 0.00 | 0.00 | 0.00 | 63 | 1033.9 |
| 20260505121414 | 16 | 135 | 0.0 | 0.0 | 0.00 | 0.00 | 0.00 | 68 | 1033.7 |
| 20260505120415 | 15 | 90 | 0.0 | 0.0 | 0.00 | 0.00 | 0.00 | 73 | 1033.7 |
| 20260505115416 | 15 | 90 | 0.0 | 0.0 | 0.00 | 0.00 | 0.00 | 75 | 1033.7 |
| 20260505114416 | 14 | 225 | 0.0 | 0.0 | 0.00 | 0.00 | 0.00 | 77 | 1033.7 |
| 20260505113416 | 13 | 270 | 0.0 | 0.0 | 0.00 | 0.00 | 0.00 | 79 | 1033.7 |
| 20260505112414 | 13 | 360 | 0.0 | 0.0 | 0.00 | 0.00 | 0.00 | 81 | 1033.5 |
| 20260505110513 | 13 | 360 | 0.0 | 0.0 | 0.00 | 0.00 | 0.00 | 80 | 1033.4 |
| 20260505101614 | 12 | 45 | 0.0 | 1.6 | 0.00 | 0.00 | 0.00 | 80 | 1033.1 |
| 20260505100614 | 12 | 45 | 0.0 | 0.0 | 0.00 | 0.00 | 0.00 | 81 | 1033.0 |
| 20260505095713 | 12 | 45 | 0.0 | 0.0 | 0.00 | 0.00 | 0.00 | 79 | 1032.8 |
| 20260505094715 | 12 | 45 | 0.0 | 0.0 | 0.00 | 0.00 | 0.00 | 79 | 1032.8 |
| 20260505093715 | 12 | 45 | 0.0 | 0.0 | 0.00 | 0.00 | 0.00 | 79 | 1032.7 |
| 20260505091615 | 12 | 45 | 0.0 | 0.0 | 0.00 | 0.00 | 0.00 | 78 | 1032.8 |
| 20260505091516 | 12 | 45 | 0.0 | 0.0 | 0.00 | 0.00 | 0.00 | 78 | 1032.8 |
| 20260505090514 | 12 | 135 | 0.0 | 0.0 | 0.00 | 0.00 | 0.00 | 78 | 1032.6 |
| 20260505085613 | 12 | 135 | 0.0 | 0.0 | 0.00 | 0.00 | 0.00 | 78 | 1032.6 |
| 20260505084613 | 13 | 135 | 0.0 | 0.0 | 0.00 | 0.00 | 0.00 | 77 | 1032.7 |
| 20260505083614 | 13 | 135 | 0.0 | 0.0 | 0.00 | 0.00 | 0.00 | 76 | 1032.8 |
| 20260505082616 | 13 | 135 | 0.0 | 0.0 | 0.00 | 0.00 | 0.00 | 76 | 1032.8 |
| 20260505081614 | 13 | 135 | 0.0 | 0.0 | 0.00 | 0.00 | 0.00 | 75 | 1032.5 |
| 20260505081516 | 13 | 135 | 0.0 | 0.0 | 0.00 | 0.00 | 0.00 | 75 | 1032.6 |
| 20260505075614 | 13 | 135 | 0.0 | 0.0 | 0.00 | 0.00 | 0.00 | 74 | 1032.6 |
| 20260505073615 | 13 | 135 | 0.0 | 0.0 | 0.00 | 0.00 | 0.00 | 72 | 1032.8 |
| 20260505072615 | 13 | 135 | 0.0 | 0.0 | 0.00 | 0.00 | 0.00 | 72 | 1032.8 |
| 20260505072514 | 13 | 135 | 0.0 | 0.0 | 0.00 | 0.00 | 0.00 | 71 | 1032.8 |
| 20260505072414 | 13 | 135 | 0.0 | 0.0 | 0.00 | 0.00 | 0.00 | 71 | 1032.7 |
| 20260505071514 | 14 | 135 | 0.0 | 0.0 | 0.00 | 0.00 | 0.00 | 71 | 1032.8 |
| 20260505070517 | 14 | 135 | 0.0 | 0.0 | 0.00 | 0.00 | 0.00 | 71 | 1032.6 |
| 20260505064515 | 14 | 45 | 0.0 | 0.0 | 0.00 | 0.00 | 0.00 | 70 | 1032.7 |
| 20260505063514 | 14 | 45 | 0.0 | 0.0 | 0.00 | 0.00 | 0.00 | 69 | 1032.7 |
| 20260505062516 | 14 | 45 | 0.0 | 0.0 | 0.00 | 0.00 | 0.00 | 68 | 1032.5 |
| 20260505062417 | 14 | 45 | 0.0 | 1.6 | 0.00 | 0.00 | 0.00 | 67 | 1032.6 |
| 20260505061414 | 14 | 45 | 0.0 | 3.2 | 0.00 | 0.00 | 0.00 | 67 | 1032.6 |
| 20260505060415 | 15 | 45 | 0.0 | 1.6 | 0.00 | 0.00 | 0.00 | 67 | 1032.5 |
| 20260505054415 | 15 | 270 | 0.0 | 0.0 | 0.00 | 0.00 | 0.00 | 63 | 1032.6 |
| 20260505053513 | 15 | 315 | 0.0 | 0.0 | 0.00 | 0.00 | 0.00 | 63 | 1032.7 |
| 20260505052516 | 15 | 315 | 0.0 | 1.6 | 0.00 | 0.00 | 0.00 | 63 | 1032.8 |
| 20260505051515 | 15 | 315 | 0.0 | 0.0 | 0.00 | 0.00 | 0.00 | 61 | 1032.8 |
| 20260505040714 | 15 | 270 | 0.0 | 0.0 | 0.00 | 0.00 | 0.00 | 59 | 1032.7 |
| 20260505035723 | 15 | 45 | 0.0 | 0.0 | 0.00 | 0.00 | 0.00 | 58 | 1032.6 |
| 20260505034822 | 15 | 180 | 0.0 | 0.0 | 0.00 | 0.00 | 0.00 | 57 | 1032.6 |
| 20260505034723 | 15 | 180 | 0.0 | 0.0 | 0.00 | 0.00 | 0.00 | 56 | 1032.6 |
| 20260505033722 | 15 | 233 | 0.0 | 0.0 | 0.00 | 0.00 | 0.00 | 53 | 1032.6 |
| 20260505031726 | 15 | 180 | 0.0 | 0.0 | 0.00 | 0.00 | 0.00 | 52 | 1032.8 |
| 20260505030824 | 15 | 315 | 0.0 | 1.6 | 0.00 | 0.00 | 0.00 | 54 | 1032.7 |
| 20260505025922 | 15 | 315 | 0.0 | 0.0 | 0.00 | 0.00 | 0.00 | 54 | 1032.7 |
| 20260505024924 | 16 | 315 | 0.0 | 0.0 | 0.00 | 0.00 | 0.00 | 52 | 1032.9 |
| 20260505023926 | 15 | 315 | 0.0 | 0.0 | 0.00 | 0.00 | 0.00 | 54 | 1033.0 |
| 20260505022022 | 16 | 270 | 0.0 | 0.0 | 0.00 | 0.00 | 0.00 | 54 | 1033.0 |
| 20260505021024 | 16 | 360 | 0.0 | 1.6 | 0.00 | 0.00 | 0.00 | 54 | 1033.0 |
| 20260505020023 | 16 | 360 | 0.0 | 0.0 | 0.00 | 0.00 | 0.00 | 52 | 1032.9 |
| 20260505015923 | 16 | 360 | 0.0 | 0.0 | 0.00 | 0.00 | 0.00 | 52 | 1033.0 |
| 20260505015825 | 16 | 360 | 0.0 | 0.0 | 0.00 | 0.00 | 0.00 | 51 | 1032.9 |
| 20260505014826 | 16 | 360 | 0.0 | 3.2 | 0.00 | 0.00 | 0.00 | 51 | 1033.0 |
| 20260505013924 | 16 | 337 | 0.0 | 1.6 | 0.00 | 0.00 | 0.00 | 52 | 1033.0 |
| 20260505013823 | 16 | 337 | 0.0 | 0.0 | 0.00 | 0.00 | 0.00 | 53 | 1032.9 |
| 20260505010922 | 15 | 112 | 0.0 | 0.0 | 0.00 | 0.00 | 0.00 | 57 | 1032.6 |
| 20260505005923 | 15 | 112 | 0.0 | 0.0 | 0.00 | 0.00 | 0.00 | 54 | 1032.6 |
| 20260505003925 | 16 | 112 | 0.0 | 0.0 | 0.00 | 0.00 | 0.00 | 49 | 1032.3 |
| 20260505002923 | 17 | 112 | 0.0 | 0.0 | 0.00 | 0.00 | 0.00 | 46 | 1032.2 |
| 20260505001926 | 17 | 112 | 0.0 | 0.0 | 0.00 | 0.00 | 0.00 | 44 | 1032.1 |
| 20260505000825 | 18 | 112 | 0.0 | 0.0 | 0.00 | 0.00 | 0.00 | 41 | 1032.2 |
| 20260504233823 | 19 | 112 | 0.0 | 0.0 | 0.00 | 0.00 | 0.00 | 37 | 1031.8 |
| 20260504231823 | 20 | 45 | 0.0 | 3.2 | 0.00 | 0.00 | 0.00 | 38 | 1031.8 |
| 20260504225825 | 20 | 45 | 0.0 | 0.0 | 0.00 | 0.00 | 0.00 | 36 | 1031.7 |
| 20260504225724 | 20 | 45 | 0.0 | 0.0 | 0.00 | 0.00 | 0.00 | 35 | 1031.7 |
| 20260504224822 | 20 | 360 | 0.0 | 0.0 | 0.00 | 0.00 | 0.00 | 34 | 1031.7 |
| 20260504224724 | 20 | 360 | 0.0 | 1.6 | 0.00 | 0.00 | 0.00 | 35 | 1031.6 |
| 20260504223724 | 20 | 360 | 0.0 | 9.7 | 0.00 | 0.00 | 0.00 | 35 | 1031.7 |
| 20260504222725 | 20 | 315 | 0.0 | 1.6 | 0.00 | 0.00 | 0.00 | 35 | 1031.8 |
| 20260504222627 | 20 | 315 | 0.0 | 1.6 | 0.00 | 0.00 | 0.00 | 36 | 1031.8 |
| 20260504221624 | 21 | 315 | 0.0 | 0.0 | 0.00 | 0.00 | 0.00 | 35 | 1031.8 |
| 20260504220624 | 21 | 352 | 0.0 | 4.8 | 0.00 | 0.00 | 0.00 | 35 | 1031.8 |
| 20260504220524 | 21 | 360 | 0.0 | 0.0 | 0.00 | 0.00 | 0.00 | 35 | 1031.8 |
| 20260504215524 | 21 | 134 | 0.0 | 3.2 | 0.00 | 0.00 | 0.00 | 34 | 1031.9 |
| 20260504214524 | 21 | 135 | 0.0 | 3.2 | 0.00 | 0.00 | 0.00 | 33 | 1032.1 |
| 20260504214424 | 21 | 135 | 0.0 | 0.0 | 0.00 | 0.00 | 0.00 | 34 | 1032.0 |
| 20260504213423 | 21 | 75 | 0.0 | 4.8 | 0.00 | 0.00 | 0.00 | 32 | 1032.0 |
| 20260504212422 | 21 | 180 | 0.0 | 0.0 | 0.00 | 0.00 | 0.00 | 32 | 1032.1 |
| 20260504212323 | 21 | 180 | 0.0 | 0.0 | 0.00 | 0.00 | 0.00 | 33 | 1032.0 |
| 20260504211422 | 22 | 45 | 0.0 | 1.6 | 0.00 | 0.00 | 0.00 | 31 | 1032.0 |
| 20260504210425 | 22 | 18 | 0.0 | 0.0 | 0.00 | 0.00 | 0.00 | 31 | 1031.9 |
| 20260504205424 | 22 | 45 | 0.0 | 0.0 | 0.00 | 0.00 | 0.00 | 30 | 1032.1 |
| 20260504205325 | 22 | 45 | 0.0 | 1.6 | 0.00 | 0.00 | 0.00 | 30 | 1032.1 |
| 20260504203425 | 24 | 272 | 0.0 | 1.6 | 0.00 | 0.00 | 0.00 | 28 | 1032.1 |
| 20260504202424 | 24 | 177 | 0.0 | 6.4 | 0.00 | 0.00 | 0.00 | 27 | 1032.1 |
| 20260504202324 | 24 | 180 | 0.0 | 0.0 | 0.00 | 0.00 | 0.00 | 26 | 1032.1 |
| 20260504202222 | 24 | 180 | 0.0 | 3.2 | 0.00 | 0.00 | 0.00 | 27 | 1032.0 |
| 20260504201224 | 25 | 14 | 1.6 | 8.0 | 0.00 | 0.00 | 0.00 | 26 | 1032.2 |
| 20260504200323 | 25 | 153 | 0.0 | 3.2 | 0.00 | 0.00 | 0.00 | 27 | 1032.2 |
| 20260504200224 | 25 | 213 | 1.6 | 14.5 | 0.00 | 0.00 | 0.00 | 27 | 1032.2 |
| 20260504194322 | 25 | 360 | 0.0 | 0.0 | 0.00 | 0.00 | 0.00 | 26 | 1032.2 |